| time (UTC) | temp F | wind direction | speed MPH | gust MPH | rain 1hr in | rain 24hr in | rain mn in | humidity % | barometer mb |
| 20260510111640 | 57 | 140 | 9.0 | 16.0 | 0.00 | 0.00 | 0.00 | 62 | |
| 20260510101939 | 55 | 110 | 13.0 | 0.0 | 0.00 | 0.00 | 0.00 | 62 | |
| 20260510091639 | 54 | 110 | 10.0 | 0.0 | 0.00 | 0.00 | 0.00 | 66 | |
| 20260510081639 | 52 | 130 | 10.0 | 0.0 | 0.00 | 0.00 | 0.00 | 66 | |
| 20260510071739 | 50 | 130 | 9.0 | 0.0 | 0.00 | 0.00 | 0.00 | 71 | |
| 20260510061641 | 46 | 150 | 10.0 | 0.0 | 0.00 | 0.00 | 0.00 | 81 | |
| 20260510051639 | 43 | 140 | 8.0 | 0.0 | 0.00 | 0.00 | 0.00 | 86 | |
| 20260510041939 | 41 | 160 | 8.0 | 0.0 | 0.00 | 0.00 | 0.00 | 86 | |
| 20260510031639 | 43 | 160 | 10.0 | 0.0 | 0.00 | 0.00 | 0.00 | 86 | |
| 20260510021639 | 43 | 170 | 10.0 | 0.0 | 0.00 | 0.00 | 0.00 | 86 | |
| 20260510011839 | 41 | 150 | 12.0 | 21.0 | 0.00 | 0.00 | 0.00 | 86 | |
| 20260510001639 | 39 | 130 | 15.0 | 0.0 | 0.00 | 0.00 | 0.00 | 93 | |
| 20260509231639 | 39 | 140 | 14.0 | 0.0 | 0.00 | 0.00 | 0.00 | 93 | |
| 20260509221938 | 39 | 130 | 16.0 | 0.0 | 0.00 | 0.00 | 0.00 | 93 | |
| 20260509211639 | 39 | 130 | 18.0 | 0.0 | 0.00 | 0.00 | 0.00 | 93 | |
| 20260509201638 | 41 | 120 | 20.0 | 0.0 | 0.00 | 0.00 | 0.00 | 93 | |
| 20260509191739 | 43 | 120 | 18.0 | 0.0 | 0.00 | 0.00 | 0.00 | 86 | |
| 20260509181638 | 45 | 110 | 15.0 | 0.0 | 0.00 | 0.00 | 0.00 | 87 | |
| 20260509171638 | 48 | 110 | 12.0 | 0.0 | 0.00 | 0.00 | 0.00 | 81 | |
| 20260509161938 | 48 | 110 | 9.0 | 0.0 | 0.00 | 0.00 | 0.00 | 81 | |
| 20260509151639 | 50 | 110 | 9.0 | 0.0 | 0.00 | 0.00 | 0.00 | 76 | |
| 20260509141639 | 50 | 90 | 5.0 | 0.0 | 0.00 | 0.00 | 0.00 | 81 | |
| 20260509131738 | 50 | 110 | 7.0 | 0.0 | 0.00 | 0.00 | 0.00 | 76 | |
| 20260509121639 | 48 | 130 | 8.0 | 0.0 | 0.00 | 0.00 | 0.00 | 81 |